Wind_Speed
63 46 34 26 28 38 40 43 45 53 63 65 71 76 83 81 80 81 83 81 81 76 78 77 74 70 67 76 75 78 81 77 72 72 74 71 69 64 60 60 63 61 62 60
64 47 35 24 23 31 37 42 46 51 56 68 68 78 78 83 81 82 83 85 83 84 80 82 79 74 68 67 80 74 77 82 81 77 77 75 72 67 64 66 63 64 66 65
66 55 37 26 23 24 33 37 45 51 53 61 74 73 79 81 84 82 82 84 84 82 84 83 82 77 72 67 64 81 75 78 81 83 78 76 75 72 72 69 68 66 63 63
70 59 43 30 24 22 26 35 39 47 53 57 65 74 78 82 84 83 83 85 86 86 83 84 83 82 76 71 68 66 75 78 75 82 82 79 80 77 74 74 72 72 69 65
70 62 44 32 25 21 20 28 35 41 48 52 60 66 74 78 84 87 86 85 86 88 87 86 87 86 84 80 78 73 71 70 81 67 72 81 81 78 77 79 78 75 73 72
70 64 45 32 25 21 20 21 27 35 42 48 53 60 64 72 78 84 88 88 85 85 88 90 86 84 85 86 82 79 75 70 67 68 71 64 69 78 80 77 81 85 82 77
72 66 52 42 34 27 18 17 20 26 37 45 46 52 57 60 71 80 84 88 88 86 85 89 90 89 89 85 85 84 80 77 73 71 70 72 71 68 77 83 82 83 86 81
71 65 50 43 39 30 20 13 15 21 28 39 45 46 51 56 59 72 82 86 89 90 88 88 90 92 91 91 91 89 86 84 79 73 73 72 77 75 63 74 83 87 85 80
70 65 52 43 40 33 25 14 11 14 17 24 33 42 44 49 56 58 68 82 88 91 93 93 93 95 95 92 92 91 91 89 86 82 78 75 72 73 72 65 62 69 81 83
66 62 53 42 41 34 24 15 10 7 9 12 16 24 32 42 49 53 58 66 78 91 96 96 96 95 95 97 98 95 93 91 89 87 84 81 78 73 75 73 66 64 60 72
66 59 57 43 41 35 28 15 8 4 1 5 9 15 19 28 33 38 45 53 58 68 80 91 98 103 103 100 99 98 98 96 96 93 89 86 85 83 80 76 73 69 64 64
65 55 60 47 38 35 27 19 10 8 6 3 3 9 7 7 7 7 15 26 36 46 58 67 77 86 98 107 107 106 101 98 99 97 95 89 88 88 85 80 77 73 70 72
63 56 55 48 39 35 27 20 14 6 7 8 2 1 4 2 7 14 10 11 20 26 29 43 58 64 73 78 87 98 100 104 100 100 98 95 88 87 87 84 81 78 73 72
61 57 52 47 39 37 28 20 17 12 8 9 5 6 7 2 9 13 10 13 14 24 28 35 45 49 59 59 64 73 87 95 100 104 101 96 92 86 85 86 85 83 78 73
59 56 54 52 38 39 30 20 16 16 13 13 9 4 10 10 8 7 12 19 23 28 22 22 32 38 42 36 48 60 69 82 96 101 102 99 96 90 86 84 92 87 83 78
58 58 56 54 42 37 33 25 18 18 16 14 13 10 10 14 17 16 17 23 25 31 36 16 5 17 33 35 34 45 57 68 82 94 97 97 96 93 90 90 90 87 84 78
57 60 56 53 52 38 37 28 20 16 17 15 18 16 14 16 19 19 21 24 34 32 30 20 12 12 12 16 24 30 40 53 66 80 86 90 91 92 89 86 82 83 81 82
58 59 56 53 53 46 37 32 24 18 17 21 24 21 20 21 23 21 23 25 30 36 33 20 18 15 10 7 6 11 26 37 50 65 74 78 82 88 88 85 82 80 80 81
57 58 58 55 53 53 39 34 28 21 14 17 23 26 27 28 26 28 26 26 27 23 24 20 11 9 10 11 9 7 0 17 35 48 64 72 76 79 86 85 82 82 82 83
55 56 59 55 54 57 52 39 33 26 18 16 19 22 27 32 29 25 25 25 22 21 16 12 19 12 9 6 4 3 6 5 12 36 46 66 74 77 75 79 82 81 83 85
53 55 56 56 51 52 54 49 40 32 24 20 20 25 24 27 31 33 31 25 21 24 24 19 14 14 16 10 5 2 5 10 17 26 35 49 61 76 80 78 74 74 75 79
51 53 56 58 53 50 50 49 42 35 29 25 21 21 24 26 30 33 30 29 25 29 26 25 23 18 15 16 16 12 8 9 11 16 23 31 41 54 67 74 78 80 80 78
46 50 55 58 52 51 51 52 40 35 31 24 21 20 21 21 21 25 29 32 34 31 32 29 24 27 26 25 21 19 18 17 17 19 23 26 29 34 44 57 68 75 78 79
42 46 51 56 53 52 52 51 47 36 29 29 23 19 18 18 19 18 22 26 29 31 33 35 33 29 29 28 30 30 29 27 27 27 27 29 33 38 42 47 53 61 71 81
42 44 48 52 51 50 49 51 49 48 34 25 21 20 19 17 16 15 14 16 22 28 33 34 36 35 35 36 34 32 31 36 38 38 39 40 41 41 43 46 51 56 62 69
41 44 45 47 50 48 46 47 48 46 43 38 32 23 17 16 16 15 13 12 12 13 15 17 18 22 26 28 32 36 38 40 42 43 45 48 51 53 54 56 58 61 63 67
Wind_Direction
352 341 325 303 274 260 249 245 237 232 230 228 223 225 227 230 229 230 229 227 224 229 231 229 230 229 227 223 229 234 231 231 232 233 232 231 235 238 242 247 247 248 246 248
354 347 334 315 296 267 255 244 241 235 231 231 226 225 226 227 230 230 231 230 227 226 230 231 230 230 232 229 224 226 234 235 236 235 234 233 233 237 244 248 249 249 249 248
355 348 338 322 303 280 262 251 242 239 234 231 230 228 227 227 228 231 231 233 231 231 233 232 231 231 233 233 231 227 225 232 238 237 237 236 236 238 242 244 246 247 251 255
354 350 342 336 318 289 259 256 248 241 237 232 233 230 228 228 228 229 231 231 232 229 228 228 232 231 232 237 238 231 232 228 231 238 239 239 240 241 244 244 245 246 248 251
351 351 342 340 332 306 277 253 249 246 238 232 231 233 232 229 228 229 230 232 232 232 230 230 229 230 230 230 234 237 237 235 232 229 236 244 244 245 250 252 251 247 250 250
350 352 347 346 338 307 279 256 247 241 244 237 232 234 235 231 229 231 232 233 234 234 236 232 230 233 235 232 232 235 238 239 240 241 235 232 241 245 245 246 246 248 249 249
349 351 351 351 347 335 309 273 247 237 234 239 239 234 234 234 230 228 231 233 234 235 235 236 234 233 233 236 236 234 236 239 237 237 238 242 243 241 244 245 247 249 250 252
348 351 351 355 349 347 341 301 252 239 235 234 236 238 238 237 237 232 229 231 233 235 235 236 236 235 233 236 237 237 237 238 240 241 238 239 242 245 245 242 245 246 250 251
349 351 353 0 355 351 348 333 279 248 238 241 240 241 243 243 243 241 238 233 234 236 237 238 239 237 236 235 237 238 238 238 238 239 240 238 241 243 244 244 243 244 248 251
351 353 353 359 358 353 344 338 320 278 255 245 240 242 242 244 247 248 247 244 242 239 239 240 241 241 242 241 238 236 237 239 241 239 238 240 240 244 244 246 249 251 250 248
349 353 356 353 358 351 345 331 328 348 345 242 245 232 240 245 251 252 256 255 252 249 248 246 243 243 244 241 240 239 238 237 238 240 239 240 239 240 243 246 249 250 248 251
347 356 355 351 354 350 344 321 323 2 349 354 314 353 267 264 288 263 246 246 249 253 256 252 249 247 243 243 243 240 237 237 237 238 238 239 239 239 241 244 247 248 253 253
347 357 359 353 349 353 339 323 305 299 350 303 267 274 290 136 4 13 347 301 275 280 272 260 249 248 249 245 242 241 240 236 235 236 238 238 237 237 241 245 248 249 252 254
349 358 359 358 354 350 344 322 299 271 268 297 266 331 12 349 24 27 9 359 328 268 267 274 275 262 251 246 244 237 236 235 232 233 235 237 238 238 238 243 246 249 253 254
351 360 358 1 356 353 342 333 293 270 259 263 257 271 298 323 328 7 0 357 343 336 317 253 262 270 271 254 240 237 233 231 229 231 232 233 236 237 237 237 243 246 250 253
352 0 359 0 359 356 345 333 324 271 254 254 269 247 269 288 313 324 337 339 329 330 328 256 225 258 266 265 256 234 230 227 227 228 229 231 233 236 238 239 243 245 247 249
352 359 360 0 0 359 352 339 321 303 252 248 248 253 253 262 281 293 299 309 314 328 331 326 279 241 262 260 242 240 227 223 224 227 228 228 231 234 236 239 241 243 245 247
349 357 360 0 2 360 355 347 328 312 274 251 245 244 248 255 265 288 305 311 318 326 335 345 4 15 39 24 19 245 224 217 217 221 225 227 231 233 236 238 239 241 245 247
345 353 359 359 359 2 359 356 342 333 316 272 259 253 247 256 263 269 292 307 312 310 323 337 14 12 32 42 40 39 302 223 214 214 219 224 229 233 234 237 239 240 243 246
340 350 358 359 2 1 6 359 350 340 332 310 293 283 263 253 261 269 285 296 302 294 291 310 322 341 16 8 97 183 238 192 215 220 219 224 227 234 235 237 239 241 244 247
334 344 353 357 1 3 0 359 356 349 338 325 308 300 297 267 260 260 266 277 281 291 281 283 275 310 318 332 339 225 230 227 223 225 227 234 234 234 237 238 242 245 247 249
330 339 346 354 355 0 3 359 353 351 342 333 320 308 303 301 282 268 268 264 266 281 282 283 276 269 276 289 300 304 277 255 240 238 238 241 242 240 239 240 243 246 249 251
328 336 342 350 352 357 0 4 359 350 350 341 328 314 306 299 295 292 291 279 270 268 266 269 273 275 274 271 267 273 277 277 274 262 250 246 244 240 240 243 244 246 248 251
326 334 339 344 349 352 354 1 3 2 351 349 344 335 323 309 301 298 288 290 288 277 273 268 274 272 273 281 280 265 267 266 267 269 266 261 253 244 241 241 243 245 248 250
321 329 334 339 345 345 348 352 359 4 8 359 359 353 345 342 334 327 321 303 289 286 281 281 277 279 273 269 270 273 272 268 264 262 264 266 268 267 263 259 257 257 257 257
315 323 328 334 340 340 343 346 353 358 4 10 11 6 10 16 17 5 352 336 320 310 305 303 298 290 287 284 279 276 277 275 273 272 271 271 270 268 270 272 273 272 271 270
Height
10538 10528 10518 10513 10508 10507 10507 10508 10514 10523 10530 10535 10548 10548 10552 10562 10575 10581 10589 10599 10609 10615 10620 10627 10634 10643 10652 10663 10670 10676 10685 10691 10698 10704 10711 10717 10722 10727 10732 10735 10741 10744 10746 10748
10533 10520 10512 10505 10502 10498 10497 10500 10504 10508 10515 10519 10529 10529 10540 10549 10556 10566 10572 10580 10590 10598 10601 10610 10620 10629 10638 10647 10657 10664 10670 10679 10685 10691 10697 10704 10709 10717 10722 10726 10730 10734 10734 10736
10529 10515 10507 10499 10493 10491 10489 10490 10493 10497 10500 10503 10508 10519 10524 10533 10542 10550 10559 10567 10579 10588 10597 10600 10609 10620 10628 10636 10645 10654 10660 10664 10671 10678 10686 10694 10701 10706 10711 10712 10716 10721 10726 10729
10523 10511 10501 10492 10485 10481 10480 10480 10481 10484 10488 10490 10494 10501 10507 10518 10526 10535 10541 10548 10556 10565 10573 10584 10595 10606 10619 10628 10632 10641 10647 10653 10659 10663 10672 10681 10688 10695 10699 10701 10706 10710 10713 10717
10520 10508 10496 10486 10478 10473 10470 10468 10469 10471 10474 10481 10480 10486 10495 10503 10510 10518 10526 10531 10541 10549 10558 10568 10577 10584 10596 10605 10613 10623 10632 10640 10647 10654 10660 10666 10674 10681 10685 10690 10692 10697 10699 10704
10516 10503 10492 10481 10472 10465 10460 10457 10458 10461 10464 10468 10473 10474 10480 10490 10498 10505 10513 10520 10528 10536 10544 10555 10568 10578 10584 10591 10601 10609 10615 10625 10632 10639 10645 10653 10657 10661 10670 10676 10675 10675 10682 10686
10512 10498 10484 10474 10466 10460 10455 10453 10451 10452 10452 10455 10462 10465 10469 10474 10482 10489 10496 10504 10512 10520 10528 10537 10550 10562 10570 10576 10585 10595 10603 10609 10615 10622 10629 10634 10639 10646 10652 10658 10661 10663 10664 10674
10510 10496 10484 10473 10462 10456 10451 10447 10446 10445 10445 10446 10449 10455 10460 10463 10466 10473 10481 10487 10494 10501 10510 10517 10526 10538 10550 10558 10566 10575 10585 10593 10599 10607 10614 10619 10622 10628 10636 10639 10644 10648 10650 10659
10507 10494 10481 10472 10461 10455 10448 10444 10442 10441 10442 10442 10445 10448 10453 10456 10459 10462 10467 10474 10480 10486 10491 10498 10507 10516 10527 10539 10545 10555 10564 10574 10581 10589 10595 10603 10609 10613 10617 10622 10627 10634 10638 10641
10508 10492 10479 10471 10460 10455 10450 10444 10440 10438 10439 10439 10440 10441 10445 10447 10449 10451 10455 10460 10464 10470 10474 10482 10488 10497 10506 10518 10527 10535 10544 10554 10560 10570 10578 10585 10593 10599 10602 10608 10614 10618 10625 10625
10507 10493 10479 10470 10462 10455 10450 10445 10443 10440 10439 10438 10438 10438 10438 10440 10441 10445 10446 10447 10449 10453 10457 10462 10469 10474 10480 10488 10499 10511 10522 10530 10537 10548 10557 10567 10573 10580 10585 10596 10602 10607 10609 10614
10504 10492 10477 10468 10462 10454 10449 10444 10442 10440 10438 10438 10437 10439 10437 10436 10437 10438 10439 10436 10436 10436 10436 10439 10441 10444 10449 10454 10464 10480 10494 10506 10514 10525 10533 10545 10554 10563 10571 10581 10586 10592 10595 10599
10500 10488 10478 10466 10459 10453 10448 10444 10440 10439 10438 10437 10437 10437 10437 10436 10435 10433 10432 10432 10430 10427 10424 10421 10418 10421 10420 10426 10437 10449 10463 10480 10491 10499 10511 10522 10535 10546 10557 10565 10571 10575 10580 10582
10500 10486 10476 10466 10457 10450 10446 10442 10438 10436 10436 10435 10434 10433 10433 10433 10433 10431 10430 10429 10426 10425 10419 10413 10405 10403 10400 10409 10414 10422 10434 10449 10467 10473 10490 10503 10517 10530 10543 10550 10554 10559 10565 10568
10498 10484 10474 10464 10455 10448 10441 10439 10435 10432 10432 10432 10432 10431 10430 10429 10429 10428 10427 10423 10420 10417 10415 10409 10397 10392 10389 10392 10395 10400 10410 10423 10439 10453 10467 10485 10498 10513 10526 10534 10526 10541 10548 10554
10494 10482 10472 10461 10452 10445 10439 10434 10430 10428 10427 10427 10428 10427 10426 10426 10425 10423 10422 10418 10415 10412 10406 10402 10392 10389 10383 10380 10383 10384 10392 10404 10418 10433 10451 10466 10481 10492 10502 10510 10517 10525 10532 10538
10491 10480 10470 10460 10450 10442 10436 10431 10427 10423 10422 10421 10422 10423 10423 10422 10421 10419 10418 10415 10409 10408 10403 10396 10384 10383 10377 10374 10376 10378 10382 10393 10406 10419 10438 10455 10467 10474 10482 10491 10500 10506 10512 10516
10490 10480 10469 10458 10449 10440 10432 10427 10423 10419 10417 10416 10416 10416 10417 10417 10417 10416 10414 10411 10406 10400 10398 10394 10385 10380 10376 10376 10376 10377 10381 10388 10399 10413 10429 10443 10452 10460 10467 10474 10482 10489 10494 10497
10488 10478 10468 10457 10447 10438 10429 10423 10419 10415 10412 10411 10410 10410 10410 10411 10411 10411 10410 10408 10405 10402 10397 10394 10391 10387 10384 10380 10378 10381 10385 10391 10398 10406 10417 10428 10438 10440 10450 10458 10464 10470 10474 10477
10484 10477 10468 10458 10447 10435 10428 10421 10416 10412 10408 10405 10404 10403 10403 10404 10404 10405 10404 10405 10403 10400 10398 10396 10392 10391 10390 10389 10387 10388 10389 10393 10398 10403 10409 10415 10424 10428 10435 10442 10446 10451 10455 10459
10480 10474 10468 10459 10451 10441 10430 10421 10415 10410 10408 10403 10400 10398 10397 10397 10397 10397 10398 10399 10398 10397 10396 10396 10395 10394 10392 10393 10393 10393 10393 10395 10398 10401 10403 10408 10414 10418 10422 10428 10435 10437 10442 10444
10478 10471 10465 10458 10449 10442 10434 10423 10415 10410 10404 10400 10397 10395 10392 10391 10391 10391 10392 10392 10393 10393 10393 10393 10394 10394 10394 10394 10393 10394 10394 10394 10396 10397 10399 10401 10403 10406 10410 10415 10419 10422 10425 10427
10474 10469 10462 10456 10449 10441 10433 10426 10416 10409 10404 10400 10395 10392 10390 10388 10386 10385 10384 10385 10386 10387 10387 10387 10388 10389 10389 10389 10389 10389 10390 10391 10392 10393 10394 10393 10393 10394 10396 10399 10404 10407 10409 10408
10470 10466 10460 10453 10447 10441 10434 10428 10420 10411 10404 10398 10395 10391 10388 10384 10382 10380 10379 10379 10378 10378 10379 10380 10381 10383 10383 10384 10385 10385 10386 10386 10386 10386 10386 10386 10386 10385 10385 10385 10385 10386 10386 10386
10466 10462 10458 10452 10445 10440 10434 10428 10422 10414 10406 10400 10395 10390 10386 10382 10379 10377 10375 10374 10373 10373 10373 10373 10374 10375 10375 10375 10376 10378 10378 10379 10379 10379 10379 10378 10378 10378 10377 10377 10376 10375 10375 10374
10461 10458 10455 10451 10444 10439 10434 10428 10424 10418 10411 10403 10398 10393 10388 10384 10380 10378 10376 10374 10372 10371 10370 10368 10367 10367 10367 10367 10368 10368 10368 10368 10369 10368 10368 10367 10367 10366 10365 10365 10363 10361 10360 10358